M I D A S
Marine Information and Data Acquisition System
Tripno 337 of the Zeeleeuw from 2002-09-18 06:45:45 to 2002-09-18 13:57:39
Back to CruiseResearch ActivitiesStationsMapUnderway DataData graphs

EquipmentUnitsComment
TimeDGPSUTC
LatitudeDGPSDM.mWGS84
LongitudeDGPSDM.mWGS84
TemperatureSBE03/SBE38deg celciusITS90
ConductivitySBE21S/mITS90
SalinitySBE21 Practical Salinity Units
ChlorophylAChelsea fluorimeterg/lCalibrated in Aceton
Missing or incorrect values are displayed as -999
Sea surface data collected by the RV Zeeleeuw from 2002-09-18 06:45:45 to 2002-09-18 13:57:39
                                                                                    Next 1000 lines
Time Latitude Longitude Temperature Conductivity Salinity ChlorophylA
2002-09-18 06:45:55 51°13.767 2°55.661 30.807665 0.070796 0.357551  
2002-09-18 06:46:00 51°13.769 2°55.66 30.979728 0.070796 0.357546  
2002-09-18 06:46:05 51°13.771 2°55.658 31.065754 0.070796 0.357551  
2002-09-18 06:46:10 51°13.773 2°55.656 30.980529 0.070796 0.357551  
2002-09-18 06:46:14 51°13.775 2°55.655 30.980529 0.070796 0.357551  
2002-09-18 06:46:20 51°13.777 2°55.653 30.723934 0.070796 0.357551  
2002-09-18 06:46:25 51°13.78 2°55.65 31.038957 0.070796 0.357551  
2002-09-18 06:46:30 51°13.783 2°55.649 31.409168 0.070796 0.357556  
2002-09-18 06:46:34 51°13.785 2°55.647 31.096923 0.070796 0.357556  
2002-09-18 06:46:40 51°13.788 2°55.645 29.97804 0.070796 0.357561  
2002-09-18 06:46:45 51°13.791 2°55.643 29.97804 0.070796 0.357561  
2002-09-18 06:46:50 51°13.794 2°55.641 31.01236 0.070796 0.357556  
2002-09-18 06:46:54 51°13.797 2°55.639 30.411534 0.070796 0.357556  
2002-09-18 06:47:00 51°13.8 2°55.637 30.842011 0.070796 0.357556  
2002-09-18 06:47:05 51°13.803 2°55.634 30.037701 0.070796 0.357561  
2002-09-18 06:47:09 51°13.806 2°55.632 30.780184 0.070796 0.357561  
2002-09-18 06:47:14 51°13.809 2°55.63 30.780184 0.070796 0.357561  
2002-09-18 06:47:20 51°13.813 2°55.627 30.183182 0.070796 0.357561  
2002-09-18 06:47:25 51°13.817 2°55.624 31.237584 0.070796 0.357561  
2002-09-18 06:47:30 51°13.821 2°55.622 31.32918 0.070796 0.357561  
2002-09-18 06:47:34 51°13.824 2°55.62 30.673343 0.070796 0.357561  
2002-09-18 06:47:40 51°13.828 2°55.616 30.41564 0.070796 0.357566  
2002-09-18 06:47:45 51°13.833 2°55.614 30.41564 0.070796 0.357566  
2002-09-18 06:47:50 51°13.838 2°55.611 30.439569 0.070796 0.357571  
2002-09-18 06:47:54 51°13.842 2°55.609 30.474327 0.070796 0.357566  
2002-09-18 06:48:00 51°13.848 2°55.605 31.047275 0.070796 0.357566  
2002-09-18 06:48:05 51°13.853 2°55.601 30.56152 0.070796 0.357566  
2002-09-18 06:48:09 51°13.857 2°55.598 31.474815 0.070796 0.357571  
2002-09-18 06:48:15 51°13.863 2°55.594 31.474815 0.070796 0.357571  
2002-09-18 06:48:20 51°13.869 2°55.59 31.333306 0.070796 0.357571  
2002-09-18 06:48:25 51°13.875 2°55.587 30.24641 0.070796 0.357577  
2002-09-18 06:48:30 51°13.882 2°55.582 31.815646 0.070796 0.357577  
2002-09-18 06:48:34 51°13.887 2°55.579 31.044317 0.070796 0.357577  
2002-09-18 06:48:40 51°13.896 2°55.573 31.18702 0.070796 0.357577  
2002-09-18 06:48:45 51°13.903 2°55.569 31.18702 0.070796 0.357577  
2002-09-18 06:48:49 51°13.909 2°55.565 31.619171 0.070796 0.357577  
2002-09-18 06:48:55 51°13.918 2°55.56 30.283155 0.070796 0.357571  
2002-09-18 06:48:59 51°13.925 2°55.556 30.277882 0.070796 0.357577  
2002-09-18 06:49:05 51°13.935 2°55.551 30.617645 0.070796 0.357577  
2002-09-18 06:49:10 51°13.943 2°55.546 31.302892 0.070796 0.357582  
2002-09-18 06:49:14 51°13.95 2°55.542 31.302892 0.070796 0.357582  
2002-09-18 06:49:20 51°13.96 2°55.537 30.790276 0.070796 0.357582  
2002-09-18 06:49:25 51°13.969 2°55.532 30.159031 0.070796 0.357587  
2002-09-18 06:49:30 51°13.978 2°55.526 31.048354 0.070796 0.357592  
2002-09-18 06:49:34 51°13.985 2°55.522 31.134303 0.070796 0.357587  
2002-09-18 06:49:40 51°13.996 2°55.516 31.396351 0.070796 0.357592  
2002-09-18 06:49:45 51°14.005 2°55.51 31.396351 0.070796 0.357592  
2002-09-18 06:49:50 51°14.014 2°55.505 31.078 0.070796 0.357597  
2002-09-18 06:49:54 51°14.021 2°55.5 30.788042 0.070796 0.357597  
2002-09-18 06:50:00 51°14.032 2°55.494 30.305966 0.070796 0.357592  
2002-09-18 06:50:05 51°14.041 2°55.488 31.540128 0.070796 0.357597  
2002-09-18 06:50:10 51°14.05 2°55.482 30.479341 0.070796 0.357597  
2002-09-18 06:50:14 51°14.058 2°55.478 30.479341 0.070796 0.357597  
2002-09-18 06:50:18 51°14.065 2°55.472 30.254956 0.070796 0.357602  
2002-09-18 06:50:25 51°14.078 2°55.463 29.735029 0.070796 0.357597  
2002-09-18 06:50:30 51°14.086 2°55.456 31.457093 0.070796 0.357608  
2002-09-18 06:50:33 51°14.092 2°55.452 30.313943 0.070796 0.357602  
2002-09-18 06:50:41 51°14.106 2°55.442 31.791351 0.070796 0.357608  
2002-09-18 06:50:45 51°14.114 2°55.437 31.791351 0.070796 0.357608  
2002-09-18 06:50:50 51°14.123 2°55.431 31.650565 0.070796 0.357608  
2002-09-18 06:50:54 51°14.13 2°55.425 31.259938 0.070796 0.357613  
2002-09-18 06:51:00 51°14.141 2°55.416 29.616706 0.070796 0.357618  
2002-09-18 06:51:05 51°14.15 2°55.408 30.425991 0.070796 0.357618  
2002-09-18 06:51:10 51°14.159 2°55.4 30.288111 0.070796 0.357618  
2002-09-18 06:51:15 51°14.168 2°55.391 30.288111 0.070796 0.357618  
2002-09-18 06:51:20 51°14.176 2°55.382 30.51331 0.070796 0.357618  
2002-09-18 06:51:25 51°14.184 2°55.372 30.771627 0.070796 0.357623  
2002-09-18 06:51:30 51°14.192 2°55.362 30.255695 0.070796 0.357623  
2002-09-18 06:51:34 51°14.199 2°55.354 30.720963 0.070796 0.357628  
2002-09-18 06:51:40 51°14.208 2°55.341 30.314119 0.070796 0.357628  
2002-09-18 06:51:45 51°14.216 2°55.33 30.314119 0.070796 0.357628  
2002-09-18 06:51:50 51°14.223 2°55.319 30.687856 0.070796 0.357633  
2002-09-18 06:51:53 51°14.228 2°55.312 31.514466 0.070796 0.357628  
2002-09-18 06:52:00 51°14.238 2°55.296 30.056074 0.070796 0.357644  
2002-09-18 06:52:05 51°14.245 2°55.284 30.200815 0.070796 0.357639  
2002-09-18 06:52:09 51°14.25 2°55.275 30.861446 0.070796 0.357633  
2002-09-18 06:52:14 51°14.257 2°55.263 30.861446 0.070796 0.357633  
2002-09-18 06:52:20 51°14.265 2°55.248 30.432061 0.070796 0.357639  
2002-09-18 06:52:25 51°14.272 2°55.236 30.216509 0.070796 0.357649  
2002-09-18 06:52:29 51°14.277 2°55.226 30.462404 0.070796 0.357649  
2002-09-18 06:52:34 51°14.284 2°55.213 30.462158 0.070796 0.357649  
2002-09-18 06:52:40 51°14.292 2°55.198 30.462719 0.070796 0.357649  
2002-09-18 06:52:45 51°14.299 2°55.185 30.462719 0.070796 0.357649  
2002-09-18 06:52:50 51°14.306 2°55.171 30.151742 0.070796 0.357649  
2002-09-18 06:52:55 51°14.313 2°55.157 30.836253 0.070796 0.357659  
2002-09-18 06:52:59 51°14.319 2°55.145 30.003025 0.070796 0.357659  
2002-09-18 06:53:05 51°14.327 2°55.126 30.49354 0.070796 0.357659  
2002-09-18 06:53:09 51°14.333 2°55.113 30.551362 0.070796 0.357659  
2002-09-18 06:53:15 51°14.342 2°55.094 30.551362 0.070796 0.357659  
2002-09-18 06:53:18 51°14.346 2°55.084 30.177867 0.070796 0.357664  
2002-09-18 06:53:25 51°14.356 2°55.062 30.43785 0.070796 0.357675  
2002-09-18 06:53:29 51°14.362 2°55.049 30.524839 0.070796 0.357675  
2002-09-18 06:53:35 51°14.372 2°55.029 30.582707 0.070796 0.357675  
2002-09-18 06:53:40 51°14.379 2°55.011 29.538289 0.070796 0.357685  
2002-09-18 06:53:45 51°14.387 2°54.992 29.538289 0.070796 0.357685  
2002-09-18 06:53:50 51°14.394 2°54.973 30.308075 0.070796 0.35768  
2002-09-18 06:53:54 51°14.4 2°54.957 30.095166 0.070796 0.35769  
2002-09-18 06:53:58 51°14.404 2°54.94 30.700443 0.070796 0.357695  
2002-09-18 06:54:05 51°14.413 2°54.91 30.26526 0.070796 0.357695  
2002-09-18 06:54:10 51°14.419 2°54.888 30.844977 0.070796 0.357701  
2002-09-18 06:54:14 51°14.424 2°54.87 30.844977 0.070796 0.357701  
2002-09-18 06:54:20 51°14.431 2°54.843 30.502409 0.070796 0.357706  
2002-09-18 06:54:25 51°14.437 2°54.82 30.128391 0.070796 0.357706  
2002-09-18 06:54:30 51°14.443 2°54.797 29.783312 0.070796 0.357711  
2002-09-18 06:54:34 51°14.449 2°54.779 29.899396 0.070796 0.357706  
2002-09-18 06:54:40 51°14.458 2°54.753 30.533634 0.070796 0.357706  
2002-09-18 06:54:45 51°14.467 2°54.733 30.533634 0.070796 0.357706  
2002-09-18 06:54:50 51°14.476 2°54.713 30.276194 0.070796 0.357711  
2002-09-18 06:54:54 51°14.484 2°54.697 30.472503 0.070796 0.357716  
2002-09-18 06:54:58 51°14.492 2°54.682 30.215454 0.070796 0.357726  
2002-09-18 06:55:05 51°14.506 2°54.655 29.584249 0.070796 0.357732  
2002-09-18 06:55:10 51°14.516 2°54.636 30.550241 0.070796 0.357732  
2002-09-18 06:55:14 51°14.525 2°54.622 30.550241 0.070796 0.357732  
2002-09-18 06:55:20 51°14.539 2°54.601 30.424833 0.070796 0.357742  
2002-09-18 06:55:25 51°14.551 2°54.584 30.319601 0.070796 0.357747  
2002-09-18 06:55:30 51°14.563 2°54.567 30.773233 0.070796 0.357747  
2002-09-18 06:55:34 51°14.573 2°54.554 29.789009 0.070796 0.357747  
2002-09-18 06:55:40 51°14.59 2°54.537 30.09499 0.070796 0.357747  
2002-09-18 06:55:45 51°14.604 2°54.525 30.09499 0.070796 0.357747  
2002-09-18 06:55:50 51°14.619 2°54.515 29.904201 0.070796 0.357752  
2002-09-18 06:55:53 51°14.628 2°54.51 30.486038 0.070796 0.357747  
2002-09-18 06:56:00 51°14.651 2°54.499 30.250068 0.070796 0.357757  
2002-09-18 06:56:05 51°14.667 2°54.493 30.572097 0.070796 0.357763  
2002-09-18 06:56:10 51°14.683 2°54.488 30.193249 0.070796 0.357763  
2002-09-18 06:56:15 51°14.699 2°54.484 30.193249 0.070796 0.357763  
2002-09-18 06:56:20 51°14.716 2°54.48 30.601438 0.070796 0.357763  
2002-09-18 06:56:25 51°14.732 2°54.476 29.760272 0.070796 0.357773  
2002-09-18 06:56:29 51°14.745 2°54.473 30.136633 0.070796 0.357773  
2002-09-18 06:56:34 51°14.762 2°54.469 29.471731 0.070796 0.357788  
2002-09-18 06:56:40 51°14.782 2°54.465 30.403672 0.070796 0.357783  
2002-09-18 06:56:45 51°14.798 2°54.461 30.403672 0.070796 0.357783  
2002-09-18 06:56:49 51°14.811 2°54.458 30.000908 0.070796 0.357788  
2002-09-18 06:56:53 51°14.824 2°54.455 29.967345 0.070796 0.357799  
2002-09-18 06:57:00 51°14.847 2°54.448 30.088258 0.070796 0.357799  
2002-09-18 06:57:05 51°14.864 2°54.444 30.601158 0.070796 0.357788  
2002-09-18 06:57:10 51°14.88 2°54.439 29.852425 0.070796 0.357799  
2002-09-18 06:57:15 51°14.896 2°54.433 29.852425 0.070796 0.357799  
2002-09-18 06:57:20 51°14.913 2°54.428 29.563172 0.070796 0.357799  
2002-09-18 06:57:25 51°14.929 2°54.423 30.747068 0.070796 0.357799  
2002-09-18 06:57:30 51°14.945 2°54.417 30.375202 0.070796 0.357804  
2002-09-18 06:57:34 51°14.958 2°54.412 30.116625 0.070796 0.357809  
2002-09-18 06:57:40 51°14.977 2°54.404 30.171812 0.070796 0.357825  
2002-09-18 06:57:45 51°14.993 2°54.397 30.171812 0.070796 0.357825  
2002-09-18 06:57:50 51°15.009 2°54.391 29.915541 0.070796 0.35783  
2002-09-18 06:57:54 51°15.022 2°54.387 30.204194 0.070796 0.35783  
2002-09-18 06:58:00 51°15.042 2°54.383 30.865423 0.070796 0.357825  
2002-09-18 06:58:05 51°15.058 2°54.383 29.745651 0.070796 0.357825  
2002-09-18 06:58:10 51°15.074 2°54.384 30.642735 0.070796 0.35783  
2002-09-18 06:58:14 51°15.086 2°54.385 30.642735 0.070796 0.35783  
2002-09-18 06:58:20 51°15.105 2°54.386 29.77358 0.070796 0.357819  
2002-09-18 06:58:25 51°15.122 2°54.388 30.615755 0.070796 0.357845  
2002-09-18 06:58:29 51°15.134 2°54.389 30.844349 0.070796 0.35784  
2002-09-18 06:58:34 51°15.15 2°54.39 30.759505 0.070796 0.357856  
2002-09-18 06:58:40 51°15.17 2°54.392 30.180366 0.070796 0.357856  
2002-09-18 06:58:45 51°15.186 2°54.396 30.180366 0.070796 0.357856  
2002-09-18 06:58:50 51°15.201 2°54.4 31.24536 0.070796 0.35785  
2002-09-18 06:58:55 51°15.217 2°54.407 30.502269 0.070796 0.35785  
2002-09-18 06:58:59 51°15.229 2°54.412 31.040593 0.070796 0.357866  
2002-09-18 06:59:05 51°15.248 2°54.42 30.731658 0.070796 0.357866  
2002-09-18 06:59:10 51°15.263 2°54.426 29.997309 0.070796 0.357887  
2002-09-18 06:59:14 51°15.276 2°54.432 29.997309 0.070796 0.357887  
2002-09-18 06:59:20 51°15.294 2°54.439 30.475694 0.070796 0.357876  
2002-09-18 06:59:25 51°15.309 2°54.446 30.764501 0.070693 0.357356  
2002-09-18 06:59:30 51°15.324 2°54.455 31.368041 0.070796 0.357871  
2002-09-18 06:59:33 51°15.333 2°54.461 30.27637 0.070796 0.357876  
2002-09-18 06:59:40 51°15.353 2°54.476 30.907658 0.070796 0.357871  
2002-09-18 06:59:45 51°15.366 2°54.488 30.907658 0.070796 0.357871  
2002-09-18 06:59:49 51°15.377 2°54.498 29.81487 0.070796 0.357887  
2002-09-18 06:59:54 51°15.39 2°54.513 29.819716 0.070796 0.357892  
2002-09-18 07:00:00 51°15.405 2°54.531 30.166495 0.070796 0.357897  
2002-09-18 07:00:05 51°15.417 2°54.546 30.162482 0.070693 0.357387  
2002-09-18 07:00:10 51°15.429 2°54.561 30.785457 0.070693 0.357387  
2002-09-18 07:00:14 51°15.439 2°54.574 30.785457 0.070693 0.357387  
2002-09-18 07:00:20 51°15.454 2°54.592 31.253378 0.070796 0.357923  
2002-09-18 07:00:24 51°15.464 2°54.604 30.165545 0.070796 0.357923  
2002-09-18 07:00:29 51°15.477 2°54.618 31.510488 0.070693 0.357402  
2002-09-18 07:00:35 51°15.493 2°54.635 30.598567 0.070796 0.357928  
2002-09-18 07:00:40 51°15.506 2°54.648 30.460931 0.070796 0.357938  
2002-09-18 07:00:45 51°15.52 2°54.662 30.460931 0.070796 0.357938  
2002-09-18 07:00:49 51°15.53 2°54.674 30.541693 0.070693 0.357392  
2002-09-18 07:00:55 51°15.544 2°54.694 30.542148 0.070693 0.357392  
2002-09-18 07:01:00 51°15.555 2°54.711 29.966568 0.070693 0.357392  
2002-09-18 07:01:05 51°15.565 2°54.731 30.657674 0.070796 0.357944  
2002-09-18 07:01:10 51°15.574 2°54.751 30.088188 0.070693 0.357407  
2002-09-18 07:01:13 51°15.58 2°54.763 30.088188 0.070693 0.357407  
2002-09-18 07:01:20 51°15.593 2°54.791 30.893571 0.070796 0.357964  
2002-09-18 07:01:25 51°15.602 2°54.811 29.741934 0.070693 0.357438  
2002-09-18 07:01:30 51°15.612 2°54.831 30.199935 0.070693 0.357444  
2002-09-18 07:01:35 51°15.623 2°54.85 30.171354 0.070693 0.357444  
2002-09-18 07:01:40 51°15.632 2°54.871 30.200991 0.070693 0.357454  
2002-09-18 07:01:42 51°15.637 2°54.879 30.200991 0.070693 0.357454  
2002-09-18 07:01:50 51°15.653 2°54.912 30.775923 0.070693 0.357454  
2002-09-18 07:01:55 51°15.664 2°54.933 31.149771 0.070693 0.357469  
2002-09-18 07:02:00 51°15.674 2°54.954 30.493295 0.070693 0.357459  
2002-09-18 07:02:09 51°15.693 2°54.993 29.517767 0.070693 0.357475  
2002-09-18 07:02:13 51°15.701 2°55.01 30.751994 0.070796 0.358001  
2002-09-18 07:02:18 51°15.712 2°55.032 31.179864 0.070693 0.357464  
2002-09-18 07:02:21 51°15.718 2°55.045 30.062173 0.070693 0.357469  
2002-09-18 07:02:29 51°15.735 2°55.08 30.580466 0.070693 0.357469  
2002-09-18 07:02:34 51°15.746 2°55.102 30.294579 0.070693 0.35748  
2002-09-18 07:02:39 51°15.757 2°55.124 30.294579 0.070693 0.35748  
2002-09-18 07:02:44 51°15.768 2°55.147 31.517302 0.070693 0.357495  
2002-09-18 07:02:49 51°15.779 2°55.169 30.180683 0.070693 0.3575  
2002-09-18 07:02:53 51°15.788 2°55.187 31.155123 0.070693 0.357506  
2002-09-18 07:02:59 51°15.801 2°55.214 31.864041 0.070693 0.357516  
2002-09-18 07:03:04 51°15.811 2°55.237 30.724109 0.070693 0.357516  
2002-09-18 07:03:09 51°15.822 2°55.26 30.724109 0.070693 0.357516  
2002-09-18 07:03:13 51°15.83 2°55.278 31.102349 0.070693 0.357526  
2002-09-18 07:03:19 51°15.843 2°55.305 30.587889 0.070693 0.357516  
2002-09-18 07:03:25 51°15.856 2°55.333 29.345235 0.070693 0.357521  
2002-09-18 07:03:29 51°15.864 2°55.351 30.359646 0.070693 0.357526  
2002-09-18 07:03:32 51°15.871 2°55.365 29.170453 0.070693 0.357531  
2002-09-18 07:03:39 51°15.886 2°55.397 29.170453 0.070693 0.357531  
2002-09-18 07:03:44 51°15.897 2°55.42 29.897594 0.070693 0.357542  
2002-09-18 07:03:49 51°15.907 2°55.443 29.404082 0.070693 0.357547  
2002-09-18 07:03:53 51°15.916 2°55.461 30.013398 0.070693 0.357552  
2002-09-18 07:03:57 51°15.925 2°55.48 30.274647 0.070693 0.357568  
2002-09-18 07:04:04 51°15.94 2°55.511 29.488394 0.070693 0.357573  
2002-09-18 07:04:09 51°15.951 2°55.534 29.488394 0.070693 0.357573  
2002-09-18 07:04:13 51°15.96 2°55.553 29.23104 0.070693 0.357583  
2002-09-18 07:04:19 51°15.972 2°55.581 30.507176 0.070693 0.357583  
2002-09-18 07:04:23 51°15.981 2°55.599 30.042709 0.070693 0.357583  
2002-09-18 07:04:29 51°15.992 2°55.628 29.556073 0.070693 0.357583  
2002-09-18 07:04:33 51°16.001 2°55.647 29.991486 0.070693 0.357599  
2002-09-18 07:04:39 51°16.013 2°55.677 29.991486 0.070693 0.357599  
2002-09-18 07:04:44 51°16.023 2°55.7 29.265146 0.070693 0.357604  
2002-09-18 07:04:49 51°16.032 2°55.725 29.551779 0.070693 0.357599  
2002-09-18 07:04:54 51°16.042 2°55.749 30.193741 0.070693 0.357619  
2002-09-18 07:04:58 51°16.05 2°55.769 29.408847 0.070693 0.357625  
2002-09-18 07:05:02 51°16.058 2°55.788 29.559835 0.070693 0.35763  
2002-09-18 07:05:09 51°16.071 2°55.822 29.559835 0.070693 0.35763  
2002-09-18 07:05:13 51°16.079 2°55.841 30.278304 0.070693 0.35764  
2002-09-18 07:05:18 51°16.089 2°55.866 29.501643 0.070693 0.357645  
2002-09-18 07:05:22 51°16.097 2°55.885 29.310133 0.070693 0.357661  
2002-09-18 07:05:29 51°16.111 2°55.919 31.454358 0.070693 0.357661  
2002-09-18 07:05:33 51°16.119 2°55.938 30.139204 0.070693 0.357666  
2002-09-18 07:05:38 51°16.128 2°55.964 30.139204 0.070693 0.357666  
2002-09-18 07:05:44 51°16.141 2°55.992 30.633288 0.070693 0.357687  
2002-09-18 07:05:49 51°16.151 2°56.016 31.312708 0.070693 0.357682  
2002-09-18 07:05:54 51°16.161 2°56.039 30.31194 0.070693 0.357687  
2002-09-18 07:05:58 51°16.17 2°56.059 31.057194 0.070693 0.357692  
2002-09-18 07:06:04 51°16.182 2°56.088 31.092888 0.070693 0.357707  
2002-09-18 07:06:09 51°16.191 2°56.112 31.092888 0.070693 0.357707  
2002-09-18 07:06:14 51°16.201 2°56.137 30.432061 0.070693 0.357718  
2002-09-18 07:06:19 51°16.211 2°56.16 30.920348 0.070693 0.357723  
2002-09-18 07:06:22 51°16.217 2°56.175 30.260864 0.070693 0.357728  
2002-09-18 07:06:29 51°16.231 2°56.21 31.31902 0.070693 0.357733  
2002-09-18 07:06:34 51°16.241 2°56.234 31.630742 0.070693 0.357739  
2002-09-18 07:06:39 51°16.251 2°56.258 31.630742 0.070693 0.357739  
2002-09-18 07:06:44 51°16.262 2°56.281 30.863783 0.070693 0.357744  
2002-09-18 07:06:48 51°16.27 2°56.301 30.665334 0.070693 0.357759  
2002-09-18 07:06:53 51°16.28 2°56.325 31.181149 0.070693 0.357764  
2002-09-18 07:06:59 51°16.293 2°56.354 30.43771 0.070693 0.35778  
2002-09-18 07:07:04 51°16.303 2°56.378 31.465331 0.070693 0.357775  
2002-09-18 07:07:09 51°16.313 2°56.402 31.465331 0.070693 0.357775  
2002-09-18 07:07:13 51°16.321 2°56.421 29.745722 0.070693 0.357785  
2002-09-18 07:07:19 51°16.333 2°56.451 31.466612 0.070693 0.357796  
2002-09-18 07:07:22 51°16.339 2°56.465 31.438744 0.070693 0.357811  
2002-09-18 07:07:29 51°16.353 2°56.5 30.52533 0.070693 0.357811  
2002-09-18 07:07:33 51°16.361 2°56.519 30.526697 0.070693 0.357821  
2002-09-18 07:07:38 51°16.37 2°56.544 30.526697 0.070693 0.357821  
2002-09-18 07:07:44 51°16.382 2°56.573 30.2686 0.070693 0.357837  
2002-09-18 07:07:49 51°16.392 2°56.598 31.469381 0.070693 0.357832  
2002-09-18 07:07:53 51°16.4 2°56.618 29.604577 0.070693 0.357842  
2002-09-18 07:07:58 51°16.41 2°56.642 29.923807 0.070693 0.357853  
2002-09-18 07:08:02 51°16.417 2°56.662 30.987147 0.070693 0.357858  
2002-09-18 07:08:09 51°16.43 2°56.697 30.987147 0.070693 0.357858  
2002-09-18 07:08:13 51°16.438 2°56.717 29.837292 0.070693 0.357868  
2002-09-18 07:08:18 51°16.448 2°56.742 30.157306 0.070693 0.357884  
2002-09-18 07:08:23 51°16.458 2°56.766 30.705618 0.070693 0.357889  
2002-09-18 07:08:29 51°16.47 2°56.795 30.56257 0.070693 0.357899  
2002-09-18 07:08:33 51°16.478 2°56.815 30.593981 0.070693 0.357899  
2002-09-18 07:08:39 51°16.49 2°56.844 30.593981 0.070693 0.357899  
2002-09-18 07:08:42 51°16.496 2°56.859 29.984675 0.070693 0.35791  
2002-09-18 07:08:49 51°16.509 2°56.892 30.364422 0.070693 0.357915  
2002-09-18 07:08:54 51°16.519 2°56.916 30.220379 0.070589 0.357388  
2002-09-18 07:08:58 51°16.527 2°56.936 29.839732 0.070589 0.357398  
2002-09-18 07:09:02 51°16.535 2°56.955 30.675512 0.070693 0.357941  
2002-09-18 07:09:09 51°16.548 2°56.99 30.675512 0.070693 0.357941  
2002-09-18 07:09:13 51°16.555 2°57.01 30.566528 0.070589 0.357409  
2002-09-18 07:09:18 51°16.564 2°57.035 29.903813 0.070693 0.357961  
2002-09-18 07:09:23 51°16.573 2°57.06 30.009094 0.070693 0.357972  
2002-09-18 07:09:29 51°16.584 2°57.09 30.59034 0.070589 0.357435  
2002-09-18 07:09:34 51°16.593 2°57.115 30.419079 0.070589 0.35745  
2002-09-18 07:09:39 51°16.601 2°57.14 30.419079 0.070589 0.35745  
2002-09-18 07:09:42 51°16.607 2°57.155 30.707435 0.070589 0.35745  
2002-09-18 07:09:49 51°16.619 2°57.19 30.28319 0.070589 0.357466  
2002-09-18 07:09:53 51°16.626 2°57.21 30.76768 0.070589 0.357471  
2002-09-18 07:09:59 51°16.637 2°57.24 31.219425 0.070589 0.357481  
2002-09-18 07:10:02 51°16.643 2°57.255 30.222068 0.070589 0.357492  
2002-09-18 07:10:09 51°16.656 2°57.29 30.222068 0.070589 0.357492  
2002-09-18 07:10:13 51°16.663 2°57.31 30.858899 0.070589 0.357492  
2002-09-18 07:10:19 51°16.674 2°57.339 30.830703 0.070589 0.357507  
2002-09-18 07:10:23 51°16.681 2°57.36 30.48162 0.070589 0.357507  
2002-09-18 07:10:29 51°16.692 2°57.39 30.716594 0.070589 0.357528  
2002-09-18 07:10:33 51°16.7 2°57.41 31.139656 0.070589 0.357528  
2002-09-18 07:10:39 51°16.711 2°57.44 31.139656 0.070589 0.357528  
2002-09-18 07:10:44 51°16.72 2°57.465 30.321744 0.070589 0.357538  
2002-09-18 07:10:49 51°16.729 2°57.489 30.883875 0.070589 0.357538  
2002-09-18 07:10:54 51°16.739 2°57.515 30.713728 0.070589 0.357554  
2002-09-18 07:10:58 51°16.746 2°57.534 31.398221 0.070589 0.357564  
2002-09-18 07:11:02 51°16.754 2°57.554 29.473401 0.070589 0.357569  
2002-09-18 07:11:09 51°16.767 2°57.589 29.473401 0.070589 0.357569  
2002-09-18 07:11:14 51°16.776 2°57.614 30.677295 0.070589 0.35758  
2002-09-18 07:11:18 51°16.784 2°57.634 31.030777 0.070589 0.357585  
2002-09-18 07:11:23 51°16.793 2°57.659 30.489999 0.070589 0.357606  
2002-09-18 07:11:29 51°16.804 2°57.69 30.66355 0.070589 0.357601  
2002-09-18 07:11:33 51°16.811 2°57.711 30.606654 0.070589 0.357606  
2002-09-18 07:11:38 51°16.82 2°57.737 30.606654 0.070589 0.357606  
2002-09-18 07:11:42 51°16.827 2°57.757 31.886557 0.070589 0.357621  
2002-09-18 07:11:49 51°16.839 2°57.793 31.660957 0.070589 0.357632  
2002-09-18 07:11:53 51°16.846 2°57.813 29.799942 0.070589 0.357637  
2002-09-18 07:11:58 51°16.855 2°57.839 30.865318 0.070589 0.357647  
2002-09-18 07:12:02 51°16.862 2°57.859 31.349878 0.070589 0.357658  
2002-09-18 07:12:09 51°16.874 2°57.895 31.349878 0.070589 0.357658  
2002-09-18 07:12:14 51°16.882 2°57.921 30.407673 0.070589 0.357663  
2002-09-18 07:12:19 51°16.891 2°57.946 30.236738 0.070589 0.357673  
2002-09-18 07:12:23 51°16.899 2°57.966 30.439885 0.070589 0.357678  
2002-09-18 07:12:29 51°16.909 2°57.996 31.207444 0.070589 0.357689  
2002-09-18 07:12:34 51°16.918 2°58.022 30.957571 0.070589 0.357699  
2002-09-18 07:12:38 51°16.926 2°58.041 30.957571 0.070589 0.357699  
2002-09-18 07:12:42 51°16.933 2°58.061 31.527955 0.070589 0.357699  
2002-09-18 07:12:49 51°16.947 2°58.096 31.244145 0.070589 0.357715  
2002-09-18 07:12:53 51°16.954 2°58.116 30.873969 0.070589 0.357725  
2002-09-18 07:12:59 51°16.966 2°58.146 30.749793 0.070589 0.35773  
2002-09-18 07:13:04 51°16.975 2°58.171 30.502409 0.070589 0.357741  
2002-09-18 07:13:08 51°16.982 2°58.191 30.502409 0.070589 0.357741  
2002-09-18 07:13:13 51°16.991 2°58.217 31.531033 0.070589 0.357751  
2002-09-18 07:13:18 51°17 2°58.242 30.528449 0.070589 0.357761  
2002-09-18 07:13:22 51°17.007 2°58.262 30.62027 0.070589 0.357767  
2002-09-18 07:13:29 51°17.02 2°58.297 31.134581 0.070589 0.357777  
2002-09-18 07:13:34 51°17.029 2°58.322 31.983674 0.070589 0.357782  
2002-09-18 07:13:39 51°17.038 2°58.347 31.983674 0.070589 0.357782  
2002-09-18 07:13:44 51°17.047 2°58.372 30.368847 0.070589 0.357787  
2002-09-18 07:13:48 51°17.054 2°58.392 30.708239 0.070589 0.357798  
2002-09-18 07:13:54 51°17.065 2°58.422 30.24845 0.070589 0.357803  
2002-09-18 07:13:59 51°17.075 2°58.446 30.622159 0.070589 0.357824  
2002-09-18 07:14:02 51°17.081 2°58.461 31.124221 0.070589 0.357829  
2002-09-18 07:14:09 51°17.094 2°58.495 31.124221 0.070589 0.357829  
2002-09-18 07:14:13 51°17.101 2°58.515 30.018795 0.070589 0.357839  
2002-09-18 07:14:18 51°17.11 2°58.539 30.687472 0.070589 0.357839  
2002-09-18 07:14:24 51°17.122 2°58.569 30.713588 0.070589 0.357855  
2002-09-18 07:14:29 51°17.132 2°58.593 30.999824 0.070589 0.35786  
2002-09-18 07:14:33 51°17.139 2°58.613 31.141742 0.070589 0.357876  
2002-09-18 07:14:38 51°17.148 2°58.637 31.141742 0.070589 0.357876  
2002-09-18 07:14:42 51°17.156 2°58.656 30.427605 0.070589 0.357876  
2002-09-18 07:14:49 51°17.169 2°58.691 30.892734 0.070589 0.357891  
2002-09-18 07:14:53 51°17.177 2°58.71 32.359083 0.070589 0.357896  
2002-09-18 07:14:59 51°17.188 2°58.739 30.135471 0.070589 0.357907  
2002-09-18 07:15:04 51°17.197 2°58.764 30.532829 0.070589 0.357917  
2002-09-18 07:15:09 51°17.206 2°58.788 30.532829 0.070589 0.357917  
2002-09-18 07:15:14 51°17.215 2°58.813 30.435815 0.070589 0.357928  
2002-09-18 07:15:17 51°17.221 2°58.828 30.83189 0.070485 0.357385  
2002-09-18 07:15:21 51°17.228 2°58.848 31.599582 0.070485 0.3574  
2002-09-18 07:15:29 51°17.243 2°58.887 31.032309 0.070485 0.357405  
2002-09-18 07:15:33 51°17.25 2°58.907 30.259985 0.070485 0.357421  
2002-09-18 07:15:37 51°17.258 2°58.926 30.259985 0.070485 0.357421  
2002-09-18 07:15:42 51°17.266 2°58.951 31.376393 0.070485 0.357431  
2002-09-18 07:15:49 51°17.279 2°58.986 30.498062 0.070485 0.357431  
2002-09-18 07:15:54 51°17.289 2°59.01 31.241611 0.070485 0.357457  
2002-09-18 07:15:59 51°17.298 2°59.035 31.187472 0.070485 0.357452  
2002-09-18 07:16:04 51°17.308 2°59.059 31.047449 0.070485 0.357468  
2002-09-18 07:16:09 51°17.317 2°59.084 31.047449 0.070485 0.357468  
2002-09-18 07:16:13 51°17.325 2°59.103 30.61866 0.070485 0.357478  
2002-09-18 07:16:18 51°17.334 2°59.128 30.813704 0.070485 0.357473  
2002-09-18 07:16:22 51°17.342 2°59.148 30.990003 0.070485 0.357488  
2002-09-18 07:16:29 51°17.355 2°59.182 30.298164 0.070485 0.357499  
2002-09-18 07:16:32 51°17.361 2°59.197 31.130652 0.070485 0.357504  
2002-09-18 07:16:37 51°17.37 2°59.221 31.130652 0.070485 0.357504  
2002-09-18 07:16:43 51°17.381 2°59.251 30.846094 0.070485 0.357504  
2002-09-18 07:16:49 51°17.391 2°59.282 31.291584 0.070485 0.35752  
2002-09-18 07:16:53 51°17.398 2°59.302 31.389213 0.070485 0.35753  
2002-09-18 07:16:59 51°17.409 2°59.332 30.825782 0.070485 0.35754  
2002-09-18 07:17:03 51°17.416 2°59.352 31.36149 0.070485 0.357546  
2002-09-18 07:17:09 51°17.426 2°59.382 31.36149 0.070485 0.357546  
2002-09-18 07:17:13 51°17.434 2°59.402 30.710966 0.070485 0.357561  
2002-09-18 07:17:19 51°17.444 2°59.433 31.308095 0.070485 0.357561  
2002-09-18 07:17:24 51°17.453 2°59.458 31.167321 0.070485 0.357577  
2002-09-18 07:17:29 51°17.461 2°59.484 30.083183 0.070485 0.357582  
2002-09-18 07:17:33 51°17.469 2°59.504 30.653301 0.070485 0.357603  
2002-09-18 07:17:39 51°17.48 2°59.534 30.653301 0.070485 0.357603  
2002-09-18 07:17:42 51°17.485 2°59.549 31.081966 0.070485 0.357603  
2002-09-18 07:17:48 51°17.496 2°59.579 30.888374 0.070485 0.357618  
2002-09-18 07:17:53 51°17.507 2°59.603 31.261326 0.070485 0.357613  
2002-09-18 07:17:59 51°17.518 2°59.631 30.399039 0.070485 0.357629  
2002-09-18 07:18:03 51°17.526 2°59.651 31.143931 0.070485 0.357629  
2002-09-18 07:18:09 51°17.537 2°59.68 31.143931 0.070485 0.357629  
2002-09-18 07:18:12 51°17.543 2°59.695 30.838137 0.070485 0.357655  
2002-09-18 07:18:19 51°17.557 2°59.729 31.003968 0.070485 0.357655  
2002-09-18 07:18:23 51°17.565 2°59.748 30.603959 0.070485 0.35766  
2002-09-18 07:18:29 51°17.576 2°59.777 30.781301 0.070485 0.35767  
2002-09-18 07:18:33 51°17.584 2°59.797 31.555791 0.070485 0.357681  
2002-09-18 07:18:37 51°17.591 2°59.816 31.555791 0.070485 0.357681  
2002-09-18 07:18:42 51°17.601 2°59.841 30.345527 0.070485 0.357691  
2002-09-18 07:18:49 51°17.615 2°59.874 30.71932 0.070485 0.357702  
2002-09-18 07:18:53 51°17.622 2°59.894 30.606059 0.070485 0.357717  
2002-09-18 07:18:58 51°17.632 2°59.918 30.234381 0.070485 0.357712  
2002-09-18 07:19:02 51°17.639 2°59.938 31.436216 0.070485 0.357733  
2002-09-18 07:19:09 51°17.653 2°59.971 31.436216 0.070485 0.357733  
2002-09-18 07:19:13 51°17.661 2°59.991 30.696318 0.070485 0.357733  
2002-09-18 07:19:18 51°17.67 3°0.015 30.524349 0.070485 0.357733  
2002-09-18 07:19:22 51°17.678 3°0.035 30.668412 0.070485 0.357743  
2002-09-18 07:19:29 51°17.691 3°0.068 30.898278 0.070485 0.357764  
2002-09-18 07:19:34 51°17.701 3°0.092 31.216821 0.070485 0.35778  
2002-09-18 07:19:39 51°17.71 3°0.116 31.216821 0.070485 0.35778  
2002-09-18 07:19:41 51°17.714 3°0.126 30.103271 0.070485 0.35778  
2002-09-18 07:19:49 51°17.73 3°0.164 30.527923 0.070485 0.357785  
2002-09-18 07:19:53 51°17.737 3°0.183 30.98652 0.070485 0.3578  
2002-09-18 07:19:59 51°17.749 3°0.212 31.100644 0.070485 0.3578  
2002-09-18 07:20:02 51°17.755 3°0.226 31.101375 0.070485 0.357816  
2002-09-18 07:20:09 51°17.769 3°0.26 31.101375 0.070485 0.357816  
2002-09-18 07:20:14 51°17.779 3°0.284 30.845326 0.070485 0.357826  
2002-09-18 07:20:18 51°17.786 3°0.303 30.732741 0.070485 0.357842  
2002-09-18 07:20:22 51°17.794 3°0.322 29.957425 0.070485 0.357837  
2002-09-18 07:20:29 51°17.807 3°0.356 30.505318 0.070381 0.357303  
2002-09-18 07:20:33 51°17.814 3°0.375 31.24293 0.070485 0.357858  
2002-09-18 07:20:39 51°17.825 3°0.404 31.24293 0.070485 0.357858  
2002-09-18 07:20:44 51°17.834 3°0.429 31.134094 0.070485 0.357868  
2002-09-18 07:20:49 51°17.843 3°0.454 31.056846 0.070485 0.357889  
2002-09-18 07:20:54 51°17.852 3°0.478 31.642519 0.070381 0.35735  
2002-09-18 07:20:58 51°17.86 3°0.498 30.703974 0.070381 0.357361  
2002-09-18 07:21:01 51°17.865 3°0.512 30.360524 0.070485 0.35791  
2002-09-18 07:21:09 51°17.88 3°0.551 30.360524 0.070485 0.35791  
2002-09-18 07:21:13 51°17.888 3°0.57 30.567439 0.070381 0.357376  
2002-09-18 07:21:18 51°17.898 3°0.594 31.105583 0.070381 0.357387  
2002-09-18 07:21:21 51°17.903 3°0.609 30.131244 0.070381 0.357402  
2002-09-18 07:21:29 51°17.919 3°0.647 31.447884 0.070381 0.357397  
2002-09-18 07:21:34 51°17.928 3°0.671 30.657534 0.070381 0.357423  
2002-09-18 07:21:39 51°17.938 3°0.694 30.657534 0.070381 0.357423  
2002-09-18 07:21:44 51°17.948 3°0.718 30.972308 0.070381 0.357413  
2002-09-18 07:21:48 51°17.955 3°0.737 31.141012 0.070381 0.357433  
2002-09-18 07:21:54 51°17.967 3°0.766 30.799809 0.070381 0.357439  
2002-09-18 07:21:59 51°17.976 3°0.79 30.741896 0.070381 0.357444  
2002-09-18 07:22:03 51°17.983 3°0.81 30.663585 0.070381 0.357465  
2002-09-18 07:22:09 51°17.995 3°0.838 30.663585 0.070381 0.357465  
2002-09-18 07:22:13 51°18.002 3°0.858 30.888967 0.070381 0.357465  
2002-09-18 07:22:18 51°18.011 3°0.882 31.17493 0.070381 0.357475  
2002-09-18 07:22:22 51°18.018 3°0.901 30.718761 0.070381 0.357485  
2002-09-18 07:22:29 51°18.031 3°0.935 29.390531 0.070381 0.357491  
2002-09-18 07:22:33 51°18.038 3°0.954 30.775818 0.070381 0.357511  
2002-09-18 07:22:39 51°18.049 3°0.983 30.775818 0.070381 0.357511  
2002-09-18 07:22:44 51°18.059 3°1.006 30.434061 0.070381 0.357511  
2002-09-18 07:22:49 51°18.068 3°1.03 30.664285 0.070381 0.357511  
2002-09-18 07:22:53 51°18.076 3°1.049 30.118386 0.070381 0.357532  
2002-09-18 07:22:58 51°18.086 3°1.073 30.894477 0.070381 0.357543  
2002-09-18 07:23:03 51°18.096 3°1.096 30.981087 0.070381 0.357548  
2002-09-18 07:23:09 51°18.107 3°1.125 30.981087 0.070381 0.357548  
2002-09-18 07:23:13 51°18.115 3°1.143 30.987287 0.070381 0.357564  
2002-09-18 07:23:19 51°18.127 3°1.172 30.80365 0.070381 0.357564  
2002-09-18 07:23:24 51°18.136 3°1.195 30.524419 0.070381 0.357569  
2002-09-18 07:23:29 51°18.146 3°1.219 31.040419 0.070381 0.357584  
2002-09-18 07:23:32 51°18.152 3°1.233 31.377848 0.070381 0.35759  
2002-09-18 07:23:39 51°18.165 3°1.267 31.377848 0.070381 0.35759  
2002-09-18 07:23:44 51°18.173 3°1.292 30.066686 0.070381 0.3576  
2002-09-18 07:23:49 51°18.182 3°1.317 30.442446 0.070381 0.35761  
2002-09-18 07:23:53 51°18.189 3°1.337 31.238938 0.070381 0.357616  
2002-09-18 07:23:56 51°18.194 3°1.351 31.415403 0.070381 0.357631  
2002-09-18 07:24:02 51°18.205 3°1.38 31.303031 0.070381 0.357636  
2002-09-18 07:24:09 51°18.218 3°1.414 31.303031 0.070381 0.357636  
2002-09-18 07:24:13 51°18.225 3°1.434 31.178474 0.070381 0.357652  
2002-09-18 07:24:18 51°18.235 3°1.457 31.192752 0.070381 0.357662  
2002-09-18 07:24:22 51°18.242 3°1.476 30.335376 0.070381 0.357662  
2002-09-18 07:24:29 51°18.255 3°1.509 31.200463 0.070381 0.357673  
2002-09-18 07:24:33 51°18.264 3°1.528 30.675162 0.070381 0.357678  
2002-09-18 07:24:37 51°18.271 3°1.547 30.675162 0.070381 0.357678  
2002-09-18 07:24:41 51°18.279 3°1.566 31.075252 0.070381 0.357689  
2002-09-18 07:24:48 51°18.293 3°1.598 30.393914 0.070381 0.357694  
2002-09-18 07:24:53 51°18.303 3°1.622 30.022323 0.070381 0.357709  
2002-09-18 07:24:59 51°18.314 3°1.651 30.657744 0.070381 0.357704  
2002-09-18 07:25:04 51°18.323 3°1.675 30.480708 0.070381 0.35772  
2002-09-18 07:25:09 51°18.332 3°1.699 30.480708 0.070381 0.35772  
2002-09-18 07:25:14 51°18.342 3°1.723 30.42336 0.070381 0.357725  
2002-09-18 07:25:18 51°18.349 3°1.742 31.081305 0.070381 0.357741  
2002-09-18 07:25:22 51°18.356 3°1.761 31.115146 0.070381 0.357746  
2002-09-18 07:25:28 51°18.367 3°1.79 30.572517 0.070381 0.357751  
2002-09-18 07:25:33 51°18.377 3°1.814 30.882166 0.070381 0.357762  
2002-09-18 07:25:39 51°18.388 3°1.843 30.882166 0.070381 0.357762  
2002-09-18 07:25:41 51°18.392 3°1.852 30.827946 0.070381 0.357777  
2002-09-18 07:25:49 51°18.407 3°1.891 30.259458 0.070381 0.357782  
2002-09-18 07:25:54 51°18.416 3°1.914 31.062831 0.070381 0.357798  
2002-09-18 07:25:57 51°18.422 3°1.928 30.314189 0.070381 0.357798  
2002-09-18 07:26:04 51°18.436 3°1.961 31.066032 0.070277 0.357264  
2002-09-18 07:26:09 51°18.445 3°1.985 31.066032 0.070277 0.357264  
2002-09-18 07:26:13 51°18.453 3°2.004 31.208139 0.070277 0.35728  
2002-09-18 07:26:18 51°18.463 3°2.028 30.775189 0.070381 0.357824  
2002-09-18 07:26:24 51°18.475 3°2.056 31.03304 0.070381 0.357835  
2002-09-18 07:26:29 51°18.484 3°2.079 31.939861 0.070381 0.35785  
2002-09-18 07:26:33 51°18.492 3°2.098 31.517545 0.070277 0.357311  
2002-09-18 07:26:38 51°18.501 3°2.122 31.517545 0.070277 0.357311  
2002-09-18 07:26:42 51°18.509 3°2.141 30.117259 0.070277 0.357316  
2002-09-18 07:26:49 51°18.522 3°2.174 30.57756 0.070277 0.357321  
2002-09-18 07:26:53 51°18.529 3°2.194 30.865562 0.070277 0.357337  
2002-09-18 07:26:58 51°18.538 3°2.218 31.038296 0.070277 0.357342  
2002-09-18 07:27:02 51°18.546 3°2.237 31.152864 0.070277 0.357347  
2002-09-18 07:27:09 51°18.558 3°2.27 31.152864 0.070277 0.357347  
2002-09-18 07:27:13 51°18.566 3°2.289 30.294649 0.070277 0.357363  
2002-09-18 07:27:19 51°18.577 3°2.318 30.870028 0.070277 0.357373  
2002-09-18 07:27:22 51°18.582 3°2.333 30.927738 0.070277 0.357373  
2002-09-18 07:27:29 51°18.596 3°2.365 30.699569 0.070277 0.357384  
2002-09-18 07:27:34 51°18.605 3°2.389 30.320971 0.070277 0.357399  
2002-09-18 07:27:38 51°18.613 3°2.408 30.320971 0.070277 0.357399  
2002-09-18 07:27:43 51°18.623 3°2.431 31.921524 0.070277 0.357405  
2002-09-18 07:27:49 51°18.635 3°2.458 31.387412 0.070277 0.357405  
2002-09-18 07:27:53 51°18.642 3°2.477 30.388262 0.070277 0.35741  
2002-09-18 07:27:58 51°18.652 3°2.501 30.440621 0.070277 0.357425  
2002-09-18 07:28:04 51°18.664 3°2.529 29.897524 0.070277 0.357436  
2002-09-18 07:28:09 51°18.674 3°2.552 29.897524 0.070277 0.357436  
2002-09-18 07:28:13 51°18.682 3°2.57 31.162073 0.070277 0.357441  
2002-09-18 07:28:18 51°18.692 3°2.593 30.447532 0.070277 0.357451  
2002-09-18 07:28:22 51°18.7 3°2.611 31.503327 0.070277 0.357457  
2002-09-18 07:28:29 51°18.714 3°2.643 30.965515 0.070277 0.357472  
2002-09-18 07:28:32 51°18.721 3°2.656 30.565583 0.070277 0.357472  
2002-09-18 07:28:39 51°18.735 3°2.689 30.565583 0.070277 0.357472  
2002-09-18 07:28:42 51°18.741 3°2.703 31.594157 0.070277 0.357478  
2002-09-18 07:28:49 51°18.753 3°2.736 29.988628 0.070277 0.357488  
2002-09-18 07:28:53 51°18.761 3°2.756 31.113129 0.070277 0.357493  
2002-09-18 07:28:59 51°18.771 3°2.786 30.220696 0.070277 0.357509  
2002-09-18 07:29:04 51°18.779 3°2.81 30.967918 0.070277 0.357514  
2002-09-18 07:29:09 51°18.788 3°2.835 30.967918 0.070277 0.357514  
2002-09-18 07:29:14 51°18.797 3°2.859 31.649252 0.070277 0.35753  
2002-09-18 07:29:19 51°18.805 3°2.884 31.880498 0.070277 0.357535  
2002-09-18 07:29:22 51°18.811 3°2.898 30.253303 0.070277 0.357556  
2002-09-18 07:29:29 51°18.824 3°2.932 30.145685 0.070277 0.357561  
2002-09-18 07:29:33 51°18.832 3°2.95 30.084205 0.070277 0.357571  
2002-09-18 07:29:38 51°18.842 3°2.974 30.084205 0.070277 0.357571  
2002-09-18 07:29:43 51°18.852 3°2.997 30.51727 0.070277 0.357577  
2002-09-18 07:29:49 51°18.864 3°3.024 30.51748 0.070277 0.357582  
2002-09-18 07:29:53 51°18.872 3°3.043 31.089097 0.070277 0.357587  
2002-09-18 07:29:58 51°18.882 3°3.066 30.660157 0.070277 0.357598  
2002-09-18 07:30:03 51°18.892 3°3.09 30.718586 0.070277 0.357598  
2002-09-18 07:30:09 51°18.903 3°3.118 30.718586 0.070277 0.357598  
2002-09-18 07:30:13 51°18.91 3°3.138 31.601206 0.070277 0.357598  
2002-09-18 07:30:18 51°18.919 3°3.162 30.979484 0.070277 0.357618  
2002-09-18 07:30:24 51°18.929 3°3.193 30.924009 0.070277 0.357624  
2002-09-18 07:30:29 51°18.938 3°3.217 30.894965 0.070277 0.357639  
2002-09-18 07:30:33 51°18.945 3°3.237 30.408375 0.070277 0.357655  
2002-09-18 07:30:39 51°18.956 3°3.266 30.408375 0.070277 0.357655  
2002-09-18 07:30:42 51°18.961 3°3.281 30.634408 0.070277 0.357671  
2002-09-18 07:30:49 51°18.974 3°3.315 30.669146 0.070277 0.357676  
2002-09-18 07:30:54 51°18.984 3°3.338 30.725926 0.070277 0.357692  
2002-09-18 07:30:59 51°18.993 3°3.362 30.410797 0.070277 0.357692  
2002-09-18 07:31:03 51°19.002 3°3.38 30.527327 0.070277 0.357697  
2002-09-18 07:31:09 51°19.014 3°3.408 30.527327 0.070277 0.357697  
2002-09-18 07:31:14 51°19.024 3°3.431 30.414446 0.070277 0.357707  
2002-09-18 07:31:19 51°19.034 3°3.455 30.812901 0.070277 0.357712  
2002-09-18 07:31:22 51°19.039 3°3.469 30.388508 0.070277 0.357712  
2002-09-18 07:31:29 51°19.053 3°3.502 29.942454 0.070277 0.357723  
2002-09-18 07:31:34 51°19.062 3°3.526 30.79087 0.070277 0.357749  
2002-09-18 07:31:39 51°19.072 3°3.55 30.79087 0.070277 0.357749  
2002-09-18 07:31:44 51°19.081 3°3.575 30.241697 0.070277 0.357739  
2002-09-18 07:31:49 51°19.09 3°3.599 30.76506 0.070277 0.357759  
2002-09-18 07:31:54 51°19.099 3°3.623 30.30572 0.070277 0.357765  
2002-09-18 07:31:58 51°19.106 3°3.642 30.680513 0.070277 0.357786  
2002-09-18 07:32:03 51°19.116 3°3.666 30.734139 0.070173 0.357251  
2002-09-18 07:32:09 51°19.127 3°3.695 30.734139 0.070173 0.357251  
2002-09-18 07:32:13 51°19.135 3°3.714 30.90581 0.070173 0.357256  
2002-09-18 07:32:18 51°19.145 3°3.737 30.390018 0.070173 0.357256  
2002-09-18 07:32:22 51°19.153 3°3.756 31.105444 0.070173 0.357261  
2002-09-18 07:32:29 51°19.167 3°3.788 31.134059 0.070173 0.357277  
2002-09-18 07:32:33 51°19.175 3°3.807 30.597342 0.070277 0.357822  
2002-09-18 07:32:38 51°19.185 3°3.83 30.597342 0.070277 0.357822  
2002-09-18 07:32:42 51°19.193 3°3.849 30.966211 0.070173 0.357287  
2002-09-18 07:32:49 51°19.207 3°3.882 30.652916 0.070173 0.357298  
2002-09-18 07:32:53 51°19.214 3°3.901 30.509594 0.070173 0.357308  
2002-09-18 07:32:58 51°19.224 3°3.925 30.717643 0.070173 0.357324  
2002-09-18 07:33:02 51°19.231 3°3.944 30.697856 0.070173 0.357339  
2002-09-18 07:33:09 51°19.245 3°3.977 30.697856 0.070173 0.357339  
2002-09-18 07:33:13 51°19.252 3°3.996 30.658408 0.070173 0.357345  
2002-09-18 07:33:18 51°19.262 3°4.02 30.199548 0.070173 0.357355  
2002-09-18 07:33:22 51°19.269 3°4.039 30.688905 0.070173 0.357365  
2002-09-18 07:33:29 51°19.283 3°4.073 30.229245 0.070173 0.357371  
2002-09-18 07:33:33 51°19.29 3°4.093 30.746893 0.070173 0.357376  
2002-09-18 07:33:38 51°19.3 3°4.116 30.746893 0.070173 0.357376  
2002-09-18 07:33:43 51°19.309 3°4.141 30.575143 0.070173 0.357381  
2002-09-18 07:33:49 51°19.32 3°4.17 30.604449 0.070173 0.357386  
2002-09-18 07:33:53 51°19.328 3°4.189 30.640391 0.070173 0.357402  
2002-09-18 07:33:58 51°19.338 3°4.213 30.836916 0.070173 0.357407  
2002-09-18 07:34:04 51°19.349 3°4.241 31.094036 0.070173 0.357418  
2002-09-18 07:34:09 51°19.358 3°4.265 31.094036 0.070173 0.357418  
2002-09-18 07:34:14 51°19.367 3°4.29 30.435745 0.070173 0.357433  
2002-09-18 07:34:19 51°19.377 3°4.314 30.263853 0.070173 0.357444  
2002-09-18 07:34:24 51°19.386 3°4.338 31.180003 0.070173 0.357444  
2002-09-18 07:34:29 51°19.396 3°4.361 31.522664 0.070173 0.35747  
2002-09-18 07:34:33 51°19.403 3°4.38 31.126898 0.070173 0.357475  
2002-09-18 07:34:38 51°19.413 3°4.404 31.126898 0.070173 0.357475  
2002-09-18 07:34:42 51°19.421 3°4.422 31.042507 0.070173 0.357486  
2002-09-18 07:34:49 51°19.436 3°4.455 30.327084 0.070173 0.357496  
2002-09-18 07:34:53 51°19.443 3°4.474 31.07313 0.070173 0.357507  
2002-09-18 07:34:58 51°19.454 3°4.496 31.414745 0.070173 0.357512  
2002-09-18 07:35:02 51°19.462 3°4.515 30.040523 0.070173 0.357522  
2002-09-18 07:35:09 51°19.476 3°4.548 30.040523 0.070173 0.357522  
2002-09-18 07:35:13 51°19.483 3°4.568 30.902567 0.070173 0.357527  
2002-09-18 07:35:18 51°19.493 3°4.591 30.44462 0.070173 0.357543  
2002-09-18 07:35:22 51°19.5 3°4.611 30.62076 0.070173 0.357559  
2002-09-18 07:35:29 51°19.514 3°4.644 30.79513 0.070173 0.357559  
2002-09-18 07:35:32 51°19.52 3°4.658 31.081062 0.070173 0.357574  
2002-09-18 07:35:37 51°19.529 3°4.683 31.081062 0.070173 0.357574  
2002-09-18 07:35:42 51°19.538 3°4.707 31.481701 0.070173 0.35758  
2002-09-18 07:35:49 51°19.551 3°4.741 30.5063 0.070173 0.357595  
2002-09-18 07:35:53 51°19.558 3°4.761 30.166742 0.070173 0.357606  
2002-09-18 07:35:58 51°19.567 3°4.785 31.311772 0.070173 0.357616  
2002-09-18 07:36:02 51°19.575 3°4.805 31.283257 0.070173 0.357642  
2002-09-18 07:36:09 51°19.589 3°4.838 31.283257 0.070173 0.357642  
2002-09-18 07:36:13 51°19.597 3°4.856 31.176146 0.070173 0.357648  
2002-09-18 07:36:18 51°19.608 3°4.879 30.482391 0.070173 0.357653  
2002-09-18 07:36:24 51°19.621 3°4.906 31.080192 0.070173 0.357669  
2002-09-18 07:36:29 51°19.632 3°4.928 31.660957 0.070173 0.357679  
2002-09-18 07:36:33 51°19.642 3°4.945 31.056045 0.070173 0.357684  
2002-09-18 07:36:39 51°19.655 3°4.971 31.056045 0.070173 0.357684  
2002-09-18 07:36:42 51°19.662 3°4.984 30.144487 0.070173 0.357695  
2002-09-18 07:36:49 51°19.678 3°5.015 30.54418 0.070173 0.35769  
2002-09-18 07:36:53 51°19.688 3°5.032 30.00299 0.070173 0.35771  
2002-09-18 07:36:59 51°19.701 3°5.059 29.881869 0.070173 0.357721  
2002-09-18 07:37:03 51°19.71 3°5.077 30.257312 0.070173 0.357731  
2002-09-18 07:37:09 51°19.723 3°5.104 30.257312 0.070173 0.357731  
2002-09-18 07:37:13 51°19.731 3°5.122 30.4029 0.070173 0.357742  
2002-09-18 07:37:18 51°19.742 3°5.145 31.319852 0.070069 0.357201  
2002-09-18 07:37:22 51°19.751 3°5.163 30.809375 0.070069 0.357222  
2002-09-18 07:37:29 51°19.766 3°5.195 30.517235 0.070173 0.357779  
2002-09-18 07:37:33 51°19.775 3°5.213 30.636927 0.070173 0.357794  
2002-09-18 07:37:39 51°19.789 3°5.238 30.636927 0.070173 0.357794  
2002-09-18 07:37:44 51°19.801 3°5.259 31.025973 0.070069 0.357264  
2002-09-18 07:37:49 51°19.814 3°5.28 30.722536 0.070069 0.357274  
2002-09-18 07:37:53 51°19.824 3°5.296 30.351358 0.070069 0.357279  
2002-09-18 07:37:58 51°19.836 3°5.317 30.292119 0.070069 0.35729  
2002-09-18 07:38:04 51°19.851 3°5.341 30.722676 0.070069 0.3573  
2002-09-18 07:38:09 51°19.864 3°5.361 30.722676 0.070069 0.3573  
2002-09-18 07:38:14 51°19.876 3°5.383 30.413323 0.070069 0.3573  
2002-09-18 07:38:18 51°19.886 3°5.4 30.644345 0.070069 0.357321  
2002-09-18 07:38:22 51°19.895 3°5.417 29.863596 0.070069 0.357327  
2002-09-18 07:38:29 51°19.911 3°5.447 30.238883 0.070069 0.357332  
2002-09-18 07:38:34 51°19.923 3°5.469 30.618905 0.070069 0.357342  
2002-09-18 07:38:39 51°19.934 3°5.491 30.618905 0.070069 0.357342  
2002-09-18 07:38:44 51°19.946 3°5.513 30.04345 0.070069 0.357358  
2002-09-18 07:38:49 51°19.957 3°5.534 30.647738 0.070069 0.357374  
2002-09-18 07:38:53 51°19.966 3°5.552 30.01428 0.070069 0.357384  
2002-09-18 07:38:59 51°19.98 3°5.579 30.355537 0.070069 0.357389  
2002-09-18 07:39:03 51°19.989 3°5.596 30.273522 0.070069 0.357405  
2002-09-18 07:39:08 51°20.001 3°5.617 30.273522 0.070069 0.357405  
2002-09-18 07:39:13 51°20.013 3°5.639 29.781153 0.070069 0.357415  
2002-09-18 07:39:18 51°20.025 3°5.66 30.766702 0.070069 0.357431  
2002-09-18 07:39:23 51°20.037 3°5.68 30.562045 0.070069 0.357436  
2002-09-18 07:39:29 51°20.051 3°5.705 30.820826 0.070069 0.357447  
2002-09-18 07:39:33 51°20.061 3°5.722 30.280624 0.070069 0.357457  
2002-09-18 07:39:37 51°20.071 3°5.739 30.280624 0.070069 0.357457  
2002-09-18 07:39:43 51°20.085 3°5.764 30.419149 0.070069 0.357473  
2002-09-18 07:39:49 51°20.1 3°5.789 31.135832 0.070069 0.357484  
2002-09-18 07:39:53 51°20.11 3°5.805 30.336113 0.070069 0.357484  
2002-09-18 07:39:58 51°20.122 3°5.826 30.596047 0.070069 0.357504  
2002-09-18 07:40:03 51°20.134 3°5.847 30.682051 0.070069 0.35751  
2002-09-18 07:40:09 51°20.148 3°5.873 30.682051 0.070069 0.35751  
2002-09-18 07:40:13 51°20.157 3°5.89 30.307969 0.070069 0.357515  
2002-09-18 07:40:18 51°20.169 3°5.911 30.338362 0.070069 0.357531  
2002-09-18 07:40:24 51°20.184 3°5.936 30.740254 0.070069 0.357541  
2002-09-18 07:40:29 51°20.196 3°5.957 30.975861 0.070069 0.357562  
2002-09-18 07:40:34 51°20.208 3°5.978 30.829796 0.070069 0.357567  
2002-09-18 07:40:38 51°20.218 3°5.994 30.829796 0.070069 0.357567  
2002-09-18 07:40:43 51°20.231 3°6.014 30.117717 0.070069 0.357583  
2002-09-18 07:40:49 51°20.247 3°6.037 30.258227 0.070069 0.357594  
2002-09-18 07:40:53 51°20.257 3°6.051 30.149065 0.070069 0.357599  
2002-09-18 07:40:59 51°20.274 3°6.072 30.145473 0.070069 0.35762  
2002-09-18 07:41:02 51°20.283 3°6.083 30.523963 0.070069 0.35762  
2002-09-18 07:41:09 51°20.303 3°6.107 30.523963 0.070069 0.35762  
2002-09-18 07:41:13 51°20.314 3°6.12 30.9544 0.070069 0.35763  
2002-09-18 07:41:19 51°20.331 3°6.141 30.295212 0.070069 0.357641  
2002-09-18 07:41:22 51°20.339 3°6.151 30.236245 0.070069 0.357646  
2002-09-18 07:41:29 51°20.359 3°6.176 30.410095 0.070069 0.357656  
2002-09-18 07:41:33 51°20.37 3°6.191 30.414095 0.070069 0.357667  
2002-09-18 07:41:38 51°20.383 3°6.209 30.414095 0.070069 0.357667  
2002-09-18 07:41:42 51°20.394 3°6.224 30.414587 0.070069 0.357677  
2002-09-18 07:41:49 51°20.412 3°6.25 30.958546 0.070069 0.357688  
2002-09-18 07:41:53 51°20.423 3°6.265 30.903753 0.070069 0.357709  
2002-09-18 07:41:58 51°20.437 3°6.283 31.217376 0.070069 0.357709  
2002-09-18 07:42:02 51°20.448 3°6.298 30.474888 0.070069 0.357735  
2002-09-18 07:42:09 51°20.467 3°6.323 30.474888 0.070069 0.357735  
2002-09-18 07:42:13 51°20.478 3°6.337 30.991118 0.070069 0.357735  
2002-09-18 07:42:19 51°20.494 3°6.358 30.432622 0.070069 0.357746  
2002-09-18 07:42:21 51°20.5 3°6.365 29.519578 0.070069 0.357761  
2002-09-18 07:42:29 51°20.523 3°6.392 30.278128 0.069965 0.357214  
2002-09-18 07:42:33 51°20.534 3°6.405 30.704534 0.069965 0.357225  
2002-09-18 07:42:39 51°20.551 3°6.426 30.704534 0.069965 0.357225  
2002-09-18 07:42:43 51°20.562 3°6.439 29.610429 0.070069 0.357788  
2002-09-18 07:42:49 51°20.579 3°6.46 30.447041 0.069965 0.357251  
2002-09-18 07:42:53 51°20.59 3°6.474 30.47878 0.069965 0.357262  
2002-09-18 07:42:57 51°20.601 3°6.488 29.733117 0.069965 0.357272  
2002-09-18 07:43:04 51°20.62 3°6.513 30.249189 0.069965 0.357288  
2002-09-18 07:43:08 51°20.631 3°6.527 30.249189 0.069965 0.357288  
2002-09-18 07:43:13 51°20.645 3°6.545 29.733188 0.069965 0.357303  
2002-09-18 07:43:19 51°20.661 3°6.567 30.804697 0.069965 0.357319  
2002-09-18 07:43:22 51°20.67 3°6.577 31.199317 0.069965 0.35733  
2002-09-18 07:43:29 51°20.688 3°6.603 29.82106 0.069965 0.357335  
2002-09-18 07:43:33 51°20.699 3°6.618 31.233279 0.069965 0.357351  
2002-09-18 07:43:38 51°20.712 3°6.637 31.233279 0.069965 0.357351  
2002-09-18 07:43:42 51°20.722 3°6.652 30.714322 0.069965 0.357366  
2002-09-18 07:43:49 51°20.74 3°6.68 29.454566 0.069965 0.357372  
2002-09-18 07:43:53 51°20.751 3°6.695 30.635387 0.069965 0.357393  
2002-09-18 07:43:59 51°20.767 3°6.717 30.233431 0.069965 0.357398  
2002-09-18 07:44:03 51°20.778 3°6.731 31.305528 0.069965 0.357419  
2002-09-18 07:44:09 51°20.795 3°6.751 31.305528 0.069965 0.357419  
2002-09-18 07:44:13 51°20.806 3°6.765 30.567018 0.069965 0.357435  
2002-09-18 07:44:18 51°20.82 3°6.782 31.062935 0.069965 0.357435  
2002-09-18 07:44:24 51°20.837 3°6.802 30.062279 0.069965 0.35745  
2002-09-18 07:44:29 51°20.851 3°6.819 30.638851 0.069965 0.357456  
2002-09-18 07:44:34 51°20.865 3°6.836 31.009958 0.069965 0.357471  
2002-09-18 07:44:38 51°20.877 3°6.85 31.009958 0.069965 0.357471  
2002-09-18 07:44:44 51°20.893 3°6.871 30.839254 0.069965 0.357477  
2002-09-18 07:44:49 51°20.907 3°6.888 31.381521 0.069965 0.357492  
2002-09-18 07:44:53 51°20.919 3°6.903 30.836637 0.069965 0.357503  
2002-09-18 07:44:58 51°20.932 3°6.92 31.239042 0.069965 0.357513  
2002-09-18 07:45:04 51°20.949 3°6.942 30.988854 0.069965 0.357513  
2002-09-18 07:45:09 51°20.963 3°6.961 30.988854 0.069965 0.357513  
2002-09-18 07:45:14 51°20.976 3°6.979 30.215806 0.069965 0.357539  
2002-09-18 07:45:18 51°20.987 3°6.995 29.752944 0.069965 0.357545  
2002-09-18 07:45:24 51°21.003 3°7.018 32.515654 0.069965 0.357555  
2002-09-18 07:45:29 51°21.016 3°7.037 31.048737 0.069965 0.357576  
2002-09-18 07:45:33 51°21.026 3°7.053 30.964609 0.069965 0.357587  
2002-09-18 07:45:39 51°21.042 3°7.076 30.964609 0.069965 0.357587  
2002-09-18 07:45:42 51°21.051 3°7.087 31.04383 0.069965 0.357592  
2002-09-18 07:45:49 51°21.07 3°7.113 31.642381 0.069965 0.357613  
2002-09-18 07:45:53 51°21.081 3°7.128 30.134273 0.069965 0.357618  
2002-09-18 07:45:58 51°21.096 3°7.145 30.452373 0.069965 0.357629  
2002-09-18 07:46:02 51°21.107 3°7.159 30.395775 0.069965 0.357644  
2002-09-18 07:46:09 51°21.127 3°7.184 30.395775 0.069965 0.357644  
2002-09-18 07:46:13 51°21.139 3°7.199 30.166671 0.069965 0.35765  
2002-09-18 07:46:18 51°21.153 3°7.216 30.278479 0.069965 0.35766  
2002-09-18 07:46:24 51°21.17 3°7.238 31.080192 0.069965 0.357666  
2002-09-18 07:46:29 51°21.185 3°7.256 30.682051 0.069861 0.357139  
2002-09-18 07:46:33 51°21.196 3°7.271 31.281869 0.069965 0.357702  
2002-09-18 07:46:38 51°21.211 3°7.289 31.281869 0.069965 0.357702  
2002-09-18 07:46:43 51°21.225 3°7.307 30.288111 0.069965 0.357702  
2002-09-18 07:46:49 51°21.242 3°7.329 31.229946 0.069965 0.357718  
2002-09-18 07:46:53 51°21.253 3°7.344 31.172637 0.069861 0.357181  
2002-09-18 07:46:59 51°21.271 3°7.365 30.629579 0.069965 0.357739  
2002-09-18 07:47:02 51°21.279 3°7.377 29.997627 0.069861 0.357207  
2002-09-18 07:47:09 51°21.3 3°7.402 29.997627 0.069861 0.357207  
2002-09-18 07:47:14 51°21.314 3°7.42 31.093132 0.069861 0.357218  
2002-09-18 07:47:18 51°21.326 3°7.435 30.636682 0.069861 0.357228  
2002-09-18 07:47:22 51°21.338 3°7.449 30.946245 0.069861 0.357239  
2002-09-18 07:47:29 51°21.358 3°7.475 31.06203 0.069861 0.357249  
2002-09-18 07:47:33 51°21.37 3°7.49 29.04513 0.069861 0.357254  
2002-09-18 07:47:38 51°21.384 3°7.51 29.04513 0.069861 0.357254  
2002-09-18 07:47:44 51°21.401 3°7.533 31.574596 0.069861 0.35727  
2002-09-18 07:47:49 51°21.415 3°7.553 31.548462 0.069861 0.357275  
2002-09-18 07:47:53 51°21.426 3°7.569 30.522106 0.069861 0.357286  
2002-09-18 07:47:59 51°21.442 3°7.593 30.551187 0.069861 0.357302  
2002-09-18 07:48:02 51°21.45 3°7.605 31.038157 0.069861 0.357317  
2002-09-18 07:48:09 51°21.47 3°7.634 31.038157 0.069861 0.357317  
2002-09-18 07:48:14 51°21.483 3°7.654 32.030623 0.069861 0.357333  
2002-09-18 07:48:18 51°21.494 3°7.671 31.47035 0.069861 0.357333  
2002-09-18 07:48:22 51°21.505 3°7.686 31.301886 0.069861 0.357349  
2002-09-18 07:48:29 51°21.524 3°7.715 31.500248 0.069861 0.357359  
2002-09-18 07:48:33 51°21.536 3°7.731 31.103183 0.069861 0.35737  
2002-09-18 07:48:39 51°21.552 3°7.754 31.103183 0.069861 0.35737  
2002-09-18 07:48:44 51°21.566 3°7.774 30.812273 0.069861 0.35737  
2002-09-18 07:48:49 51°21.58 3°7.794 30.814368 0.069861 0.357375  
2002-09-18 07:48:53 51°21.591 3°7.81 31.359931 0.069861 0.357401  
2002-09-18 07:48:59 51°21.608 3°7.834 31.187264 0.069861 0.357412  
2002-09-18 07:49:02 51°21.616 3°7.847 30.966804 0.069861 0.357417  
2002-09-18 07:49:09 51°21.635 3°7.875 30.966804 0.069861 0.357417  
2002-09-18 07:49:13 51°21.646 3°7.891 31.650634 0.069861 0.357428  
2002-09-18 07:49:18 51°21.66 3°7.911 30.911389 0.069861 0.357443  
2002-09-18 07:49:21 51°21.669 3°7.923 31.018801 0.069861 0.357449  
2002-09-18 07:49:29 51°21.691 3°7.955 31.036451 0.069861 0.357465  
2002-09-18 07:49:33 51°21.702 3°7.971 30.541553 0.069861 0.357475  
2002-09-18 07:49:39 51°21.719 3°7.995 30.541553 0.069861 0.357475  
2002-09-18 07:49:43 51°21.73 3°8.011 30.771766 0.069861 0.357486  
2002-09-18 07:49:49 51°21.747 3°8.035 30.913864 0.069861 0.357496  
2002-09-18 07:49:53 51°21.758 3°8.051 31.087706 0.069861 0.357512  
2002-09-18 07:49:57 51°21.769 3°8.067 31.05347 0.069861 0.357522  
2002-09-18 07:50:04 51°21.788 3°8.095 31.088262 0.069861 0.357533  
2002-09-18 07:50:09 51°21.802 3°8.116 31.088262 0.069861 0.357533  
2002-09-18 07:50:13 51°21.813 3°8.132 31.339166 0.069861 0.357543  
2002-09-18 07:50:19 51°21.829 3°8.157 22.328403 0.069861 0.357554  
2002-09-18 07:50:22 51°21.838 3°8.169 22.526977 0.069861 0.357564  
2002-09-18 07:50:29 51°21.856 3°8.199 22.208986 0.069861 0.357575  
2002-09-18 07:50:33 51°21.866 3°8.217 22.306079 0.069861 0.357591  
2002-09-18 07:50:38 51°21.88 3°8.237 22.306079 0.069861 0.357591  
2002-09-18 07:50:44 51°21.895 3°8.263 22.306784 0.069861 0.357596  
2002-09-18 07:50:49 51°21.909 3°8.285 22.466423 0.069861 0.357612  
2002-09-18 07:50:53 51°21.919 3°8.302 22.403432 0.069861 0.357628  
2002-09-18 07:50:58 51°21.932 3°8.324 22.213301 0.069861 0.357628  
2002-09-18 07:51:03 51°21.945 3°8.345 22.249101 0.069861 0.357643  
2002-09-18 07:51:09 51°21.96 3°8.372 22.249101 0.069861 0.357643  
2002-09-18 07:51:13 51°21.971 3°8.389 22.346806 0.069861 0.357664  
2002-09-18 07:51:17 51°21.981 3°8.406 22.508699 0.069861 0.357664  
2002-09-18 07:51:21 51°21.992 3°8.423 22.284571 0.069757 0.357132  
2002-09-18 07:51:29 51°22.013 3°8.457 22.316694 0.069861 0.357696  
2002-09-18 07:51:33 51°22.023 3°8.474 22.284571 0.069861 0.357701  
2002-09-18 07:51:37 51°22.034 3°8.491 22.284571 0.069861 0.357701  
2002-09-18 07:51:42 51°22.047 3°8.513 22.447582 0.069861 0.357712  
2002-09-18 07:51:49 51°22.065 3°8.543 22.288019 0.069757 0.357169  
2002-09-18 07:51:54 51°22.078 3°8.564 22.224988 0.069757 0.357184  
2002-09-18 07:51:59 51°22.091 3°8.586 22.385944 0.069757 0.35719  
2002-09-18 07:52:03 51°22.101 3°8.604 22.322568 0.069757 0.357211  
2002-09-18 07:52:09 51°22.117 3°8.63 22.322568 0.069757 0.357211  
2002-09-18 07:52:13 51°22.127 3°8.647 22.258353 0.069757 0.357221  
2002-09-18 07:52:19 51°22.143 3°8.673 22.29178 0.069757 0.357226  
2002-09-18 07:52:22 51°22.151 3°8.686 22.356475 0.069757 0.357247  
2002-09-18 07:52:29 51°22.169 3°8.717 22.422089 0.069757 0.357253  
2002-09-18 07:52:34 51°22.182 3°8.737 22.454736 0.069757 0.357263  
2002-09-18 07:52:38 51°22.193 3°8.755 22.454736 0.069757 0.357263  
2002-09-18 07:52:44 51°22.209 3°8.78 22.359724 0.069757 0.357279  
2002-09-18 07:52:49 51°22.223 3°8.801 22.456339 0.069757 0.357284  
2002-09-18 07:52:53 51°22.233 3°8.818 22.360702 0.069757 0.3573  
2002-09-18 07:52:59 51°22.25 3°8.844 22.426038 0.069757 0.357311  
2002-09-18 07:53:04 51°22.263 3°8.865 22.491198 0.069757 0.357316  
2002-09-18 07:53:09 51°22.276 3°8.886 22.491198 0.069757 0.357316  
2002-09-18 07:53:12 51°22.285 3°8.899 22.395686 0.069757 0.357326  
2002-09-18 07:53:18 51°22.301 3°8.925 22.238359 0.069757 0.357337  
2002-09-18 07:53:24 51°22.317 3°8.951 22.431787 0.069757 0.357353  
2002-09-18 07:53:29 51°22.329 3°8.973 22.241025 0.069757 0.357353  
2002-09-18 07:53:34 51°22.343 3°8.995 22.335804 0.069757 0.357368  
2002-09-18 07:53:38 51°22.353 3°9.012 22.335804 0.069757 0.357368  
2002-09-18 07:53:43 51°22.366 3°9.034 22.273991 0.069757 0.357374  
2002-09-18 07:53:49 51°22.382 3°9.061 22.306157 0.069757 0.357384  
2002-09-18 07:53:53 51°22.391 3°9.077 22.467752 0.069757 0.3574  
2002-09-18 07:53:58 51°22.403 3°9.097 22.469667 0.069757 0.357416  
2002-09-18 07:54:01 51°22.409 3°9.109 22.469198 0.069757 0.357421  
2002-09-18 07:54:10 51°22.427 3°9.14 22.438043 0.069757 0.357442  
2002-09-18 07:54:15 51°22.437 3°9.156 22.438043 0.069757 0.357442  
2002-09-18 07:54:20 51°22.445 3°9.172 22.471895 0.069757 0.357442  
2002-09-18 07:54:25 51°22.454 3°9.186 22.409847 0.069757 0.357447  
2002-09-18 07:54:30 51°22.462 3°9.2 22.312033 0.069757 0.357453  
2002-09-18 07:54:32 51°22.465 3°9.205 22.344926 0.069757 0.357463  
2002-09-18 07:54:39 51°22.475 3°9.223 22.345005 0.069757 0.357479  
2002-09-18 07:54:45 51°22.483 3°9.237 22.345005 0.069757 0.357479  
2002-09-18 07:54:50 51°22.489 3°9.248 22.505066 0.069757 0.357484  
2002-09-18 07:54:54 51°22.494 3°9.257 22.249337 0.069757 0.357495  
2002-09-18 07:54:59 51°22.5 3°9.267 22.31642 0.069757 0.3575  
2002-09-18 07:55:02 51°22.503 3°9.273 22.28555 0.069757 0.357521  
2002-09-18 07:55:10 51°22.512 3°9.287 22.445979 0.069757 0.357516  
2002-09-18 07:55:13 51°22.515 3°9.293 22.445979 0.069757 0.357516  
2002-09-18 07:55:18 51°22.52 3°9.301 22.383244 0.069757 0.357537  
2002-09-18 07:55:25 51°22.526 3°9.312 22.449185 0.069757 0.357548  
2002-09-18 07:55:29 51°22.53 3°9.318 22.449732 0.069757 0.357553  
2002-09-18 07:55:33 51°22.534 3°9.324 22.322098 0.069757 0.357558  
2002-09-18 07:55:37 51°22.537 3°9.33 22.642552 0.069757 0.357574  
2002-09-18 07:55:45 51°22.544 3°9.34 22.642552 0.069757 0.357574  
2002-09-18 07:55:50 51°22.548 3°9.347 22.387118 0.069757 0.357584  
2002-09-18 07:55:53 51°22.551 3°9.35 22.547866 0.069757 0.357584  
2002-09-18 07:56:00 51°22.557 3°9.359 22.357375 0.069757 0.3576  
2002-09-18 07:56:09 51°22.565 3°9.369 22.391148 0.069757 0.357611  
2002-09-18 07:56:14 51°22.569 3°9.374 22.424474 0.069757 0.357606  
2002-09-18 07:56:17 51°22.572 3°9.377 22.489049 0.069757 0.357621  
2002-09-18 07:56:22 51°22.576 3°9.383 22.425765 0.069757 0.357621  
2002-09-18 07:56:29 51°22.582 3°9.39 22.395842 0.069757 0.357643  
2002-09-18 07:56:32 51°22.585 3°9.393 22.300673 0.069653 0.357093  
2002-09-18 07:56:38 51°22.59 3°9.398 22.300673 0.069653 0.357093  
2002-09-18 07:56:44 51°22.596 3°9.404 22.398972 0.069653 0.357099  
2002-09-18 07:56:49 51°22.6 3°9.409 22.431787 0.069653 0.35712  
2002-09-18 07:56:53 51°22.604 3°9.412 22.431943 0.069653 0.35712  
2002-09-18 07:56:58 51°22.608 3°9.417 22.304786 0.069653 0.35713  
2002-09-18 07:57:04 51°22.613 3°9.423 22.337722 0.069653 0.357135  
2002-09-18 07:57:09 51°22.618 3°9.427 22.337722 0.069653 0.357135  
2002-09-18 07:57:14 51°22.622 3°9.432 22.531155 0.069653 0.357151  
2002-09-18 07:57:17 51°22.625 3°9.434 22.275989 0.069653 0.357157  
2002-09-18 07:57:24 51°22.631 3°9.44 22.340698 0.069653 0.357167  
2002-09-18 07:57:29 51°22.635 3°9.444 22.629685 0.069653 0.357167  
2002-09-18 07:57:33 51°22.638 3°9.447 22.406678 0.069653 0.357188  
2002-09-18 07:57:38 51°22.642 3°9.451 22.406678 0.069653 0.357188  
2002-09-18 07:57:44 51°22.646 3°9.455 22.535685 0.069653 0.357188  
2002-09-18 07:57:49 51°22.649 3°9.459 22.40883 0.069653 0.357209  
2002-09-18 07:57:53 51°22.652 3°9.462 22.409338 0.069653 0.357209  
2002-09-18 07:57:58 51°22.655 3°9.465 22.541463 0.069653 0.35723  
2002-09-18 07:58:04 51°22.659 3°9.469 22.447348 0.069653 0.35723  
2002-09-18 07:58:08 51°22.661 3°9.471 22.447348 0.069653 0.35723  
2002-09-18 07:58:14 51°22.665 3°9.475 22.54525 0.069653 0.35723  
2002-09-18 07:58:17 51°22.667 3°9.476 22.515105 0.069653 0.357246  
2002-09-18 07:58:22 51°22.669 3°9.479 22.323704 0.069653 0.357257  
2002-09-18 07:58:29 51°22.673 3°9.483 22.292642 0.069653 0.357257  
2002-09-18 07:58:33 51°22.675 3°9.485 22.454345 0.069653 0.357272  
2002-09-18 07:58:38 51°22.678 3°9.487 22.454345 0.069653 0.357272  
2002-09-18 07:58:42 51°22.68 3°9.489 22.552199 0.069653 0.357283  
2002-09-18 07:58:49 51°22.683 3°9.493 22.265839 0.069653 0.357288  
2002-09-18 07:58:53 51°22.685 3°9.494 22.555478 0.069653 0.357299  
2002-09-18 07:58:58 51°22.687 3°9.497 22.395921 0.069653 0.357315  
2002-09-18 07:59:04 51°22.69 3°9.499 22.332397 0.069653 0.35732  
2002-09-18 07:59:09 51°22.692 3°9.501 22.332397 0.069653 0.35732  
2002-09-18 07:59:13 51°22.694 3°9.503 22.525532 0.069653 0.357336  
2002-09-18 07:59:19 51°22.696 3°9.505 22.494675 0.069653 0.357346  
2002-09-18 07:59:23 51°22.698 3°9.506 22.431787 0.069653 0.357357  
2002-09-18 07:59:29 51°22.7 3°9.509 22.273168 0.069653 0.357362  
2002-09-18 07:59:33 51°22.701 3°9.51 22.531155 0.069653 0.357378  
2002-09-18 07:59:37 51°22.703 3°9.512 22.531155 0.069653 0.357378  
2002-09-18 07:59:42 51°22.704 3°9.513 22.307568 0.069653 0.357378  
2002-09-18 07:59:49 51°22.707 3°9.516 22.852155 0.069653 0.357383  
2002-09-18 07:59:53 51°22.708 3°9.517 22.630816 0.069653 0.357394  
2002-09-18 07:59:59 51°22.71 3°9.518 22.376083 0.069653 0.357399  
2002-09-18 08:00:02 51°22.711 3°9.519 22.569374 0.069653 0.357415  
2002-09-18 08:00:09 51°22.713 3°9.521 22.569374 0.069653 0.357415  
2002-09-18 08:00:13 51°22.714 3°9.521 22.346258 0.069653 0.357431  
2002-09-18 08:00:19 51°22.715 3°9.522 22.475881 0.069653 0.357436  
2002-09-18 08:00:22 51°22.716 3°9.523 22.445588 0.069653 0.357441  
2002-09-18 08:00:29 51°22.718 3°9.524 22.414619 0.069653 0.357452  
2002-09-18 08:00:33 51°22.718 3°9.525 22.44856 0.069653 0.357457  
2002-09-18 08:00:38 51°22.719 3°9.525 22.44856 0.069653 0.357457  
2002-09-18 08:00:44 51°22.721 3°9.526 22.449498 0.069653 0.357457  
2002-09-18 08:00:49 51°22.722 3°9.527 22.357101 0.069653 0.357473  
2002-09-18 08:00:53 51°22.722 3°9.528 22.488189 0.069653 0.357478  
2002-09-18 08:00:58 51°22.724 3°9.528 22.329539 0.069653 0.357494  
2002-09-18 08:01:04 51°22.725 3°9.529 22.45888 0.069653 0.35751  
2002-09-18 08:01:09 51°22.725 3°9.53 22.45888 0.069653 0.35751  
2002-09-18 08:01:14 51°22.726 3°9.53 22.684062 0.069653 0.357515  
2002-09-18 08:01:19 51°22.727 3°9.531 22.301457 0.069653 0.35752  
2002-09-18 08:01:24 51°22.728 3°9.531 22.36716 0.069653 0.357526  
2002-09-18 08:01:29 51°22.729 3°9.532 22.240202 0.069653 0.357536  
2002-09-18 08:01:34 51°22.73 3°9.532 22.529828 0.069653 0.357547  
2002-09-18 08:01:38 51°22.731 3°9.533 22.529828 0.069653 0.357547  
2002-09-18 08:01:44 51°22.732 3°9.533 22.531194 0.069653 0.357557  
2002-09-18 08:01:49 51°22.733 3°9.533 22.308547 0.069653 0.357568  
2002-09-18 08:01:54 51°22.734 3°9.533 22.310074 0.069549 0.357034  
2002-09-18 08:01:58 51°22.735 3°9.533 22.503621 0.069653 0.357584  
2002-09-18 08:02:04 51°22.736 3°9.533 22.377492 0.069549 0.357039  
2002-09-18 08:02:09 51°22.737 3°9.534 22.377492 0.069549 0.357039  
2002-09-18 08:02:13 51°22.738 3°9.534 22.379135 0.069549 0.35705  
2002-09-18 08:02:19 51°22.739 3°9.534 22.252865 0.069653 0.357605  
2002-09-18 08:02:23 51°22.74 3°9.533 22.606635 0.069549 0.357071  
2002-09-18 08:02:29 51°22.741 3°9.533 22.512293 0.069549 0.357076  
2002-09-18 08:02:34 51°22.742 3°9.533 22.450123 0.069549 0.357071  
2002-09-18 08:02:38 51°22.743 3°9.533 22.450123 0.069549 0.357071  
2002-09-18 08:02:44 51°22.744 3°9.532 22.451804 0.069549 0.357081  
2002-09-18 08:02:49 51°22.745 3°9.532 22.580925 0.069549 0.357092  
2002-09-18 08:02:54 51°22.746 3°9.531 22.391539 0.069549 0.357102  
2002-09-18 08:02:58 51°22.747 3°9.531 22.585529 0.069549 0.357113  
2002-09-18 08:03:04 51°22.748 3°9.53 22.331105 0.069549 0.357124  
2002-09-18 08:03:08 51°22.748 3°9.53 22.331105 0.069549 0.357124  
2002-09-18 08:03:13 51°22.749 3°9.529 22.397251 0.069549 0.357129  
2002-09-18 08:03:19 51°22.75 3°9.528 22.367317 0.069549 0.357139  
2002-09-18 08:03:24 51°22.751 3°9.527 22.561099 0.069549 0.357145  
2002-09-18 08:03:29 51°22.751 3°9.525 22.370917 0.069549 0.35715  
2002-09-18 08:03:34 51°22.752 3°9.524 22.532991 0.069549 0.357155  
2002-09-18 08:03:38 51°22.753 3°9.523 22.532991 0.069549 0.357155  
2002-09-18 08:03:44 51°22.754 3°9.522 22.470761 0.069549 0.357161  
2002-09-18 08:03:49 51°22.754 3°9.52 22.53631 0.069549 0.357171  
2002-09-18 08:03:54 51°22.755 3°9.519 22.60211 0.069549 0.357176  
2002-09-18 08:03:58 51°22.755 3°9.517 22.475568 0.069549 0.357182  
2002-09-18 08:04:04 51°22.756 3°9.515 22.732596 0.069549 0.357192  
2002-09-18 08:04:08 51°22.757 3°9.514 22.732596 0.069549 0.357192  
2002-09-18 08:04:13 51°22.757 3°9.512 22.286295 0.069549 0.357198  
2002-09-18 08:04:18 51°22.758 3°9.51 22.449107 0.069549 0.357203  
2002-09-18 08:04:24 51°22.758 3°9.508 22.515261 0.069549 0.357203  
2002-09-18 08:04:29 51°22.759 3°9.506 22.356788 0.069549 0.357219  
2002-09-18 08:04:34 51°22.759 3°9.504 22.261763 0.069549 0.357234  
2002-09-18 08:04:38 51°22.759 3°9.503 22.261763 0.069549 0.357234  
2002-09-18 08:04:44 51°22.76 3°9.501 22.488346 0.069549 0.357229  
2002-09-18 08:04:49 51°22.76 3°9.498 22.362424 0.069549 0.35724  
2002-09-18 08:04:54 51°22.76 3°9.496 22.428346 0.069549 0.357245  
2002-09-18 08:04:58 51°22.761 3°9.495 22.494206 0.069549 0.357256  
2002-09-18 08:05:04 51°22.761 3°9.492 22.496667 0.069549 0.357256  
2002-09-18 08:05:09 51°22.761 3°9.49 22.496667 0.069549 0.357256  
2002-09-18 08:05:14 51°22.761 3°9.488 22.370252 0.069549 0.357261  
2002-09-18 08:05:19 51°22.761 3°9.485 22.59618 0.069549 0.357271  
2002-09-18 08:05:24 51°22.761 3°9.483 22.438199 0.069549 0.357282  
2002-09-18 08:05:29 51°22.761 3°9.481 22.31215 0.069549 0.357282  
2002-09-18 08:05:34 51°22.761 3°9.478 22.378235 0.069549 0.357293  
2002-09-18 08:05:38 51°22.761 3°9.476 22.378235 0.069549 0.357293  
2002-09-18 08:05:44 51°22.761 3°9.473 22.411411 0.069549 0.357303  
2002-09-18 08:05:49 51°22.76 3°9.472 22.509402 0.069549 0.357308  
2002-09-18 08:05:54 51°22.76 3°9.469 22.415401 0.069549 0.357308  
2002-09-18 08:05:58 51°22.76 3°9.467 22.482055 0.069549 0.357319  
2002-09-18 08:06:02 51°22.76 3°9.464 22.484595 0.069549 0.357324  
2002-09-18 08:06:09 51°22.759 3°9.46 22.484595 0.069549 0.357324  
2002-09-18 08:06:14 51°22.759 3°9.458 22.518464 0.069549 0.357335  
2002-09-18 08:06:17 51°22.758 3°9.457 22.519909 0.069549 0.357335  
2002-09-18 08:06:24 51°22.758 3°9.453 22.521744 0.069549 0.35734  
2002-09-18 08:06:29 51°22.757 3°9.451 22.587948 0.069549 0.357356  
2002-09-18 08:06:34 51°22.757 3°9.449 22.653507 0.069549 0.357356  
2002-09-18 08:06:38 51°22.756 3°9.447 22.653507 0.069549 0.357356  
2002-09-18 08:06:44 51°22.756 3°9.444 22.527602 0.069549 0.357367  
2002-09-18 08:06:48 51°22.755 3°9.442 22.433194 0.069549 0.357372  
2002-09-18 08:06:54 51°22.754 3°9.44 22.562973 0.069549 0.357377  
2002-09-18 08:06:57 51°22.754 3°9.438 22.436713 0.069549 0.357388  
2002-09-18 08:07:04 51°22.753 3°9.435 22.566876 0.069549 0.357388  
2002-09-18 08:07:09 51°22.752 3°9.433 22.566876 0.069549 0.357388  
2002-09-18 08:07:14 51°22.751 3°9.431 22.50491 0.069549 0.357393  
2002-09-18 08:07:19 51°22.75 3°9.429 22.540175 0.069549 0.357398  
2002-09-18 08:07:24 51°22.75 3°9.426 22.573744 0.069549 0.357404  
2002-09-18 08:07:29 51°22.749 3°9.424 22.607844 0.069549 0.357414  
2002-09-18 08:07:34 51°22.748 3°9.422 22.449654 0.069549 0.357419  
2002-09-18 08:07:38 51°22.748 3°9.42 22.449654 0.069549 0.357419  
2002-09-18 08:07:44 51°22.747 3°9.417 22.611511 0.069549 0.357425  
2002-09-18 08:07:49 51°22.746 3°9.415 22.645086 0.069549 0.357435  
2002-09-18 08:07:54 51°22.745 3°9.413 22.455049 0.069549 0.357441  
2002-09-18 08:07:58 51°22.744 3°9.411 22.424943 0.069549 0.357446  
2002-09-18 08:08:04 51°22.743 3°9.409 22.713708 0.069549 0.357451  
2002-09-18 08:08:08 51°22.742 3°9.407 22.713708 0.069549 0.357451  
2002-09-18 08:08:13 51°22.741 3°9.405 22.587987 0.069549 0.357451  
2002-09-18 08:08:19 51°22.74 3°9.403 22.560045 0.069445 0.356911  
2002-09-18 08:08:24 51°22.739 3°9.401 22.595166 0.069445 0.356922  
2002-09-18 08:08:29 51°22.739 3°9.399 22.502527 0.069549 0.357472  
2002-09-18 08:08:34 51°22.738 3°9.398 22.471816 0.069549 0.357478  
2002-09-18 08:08:36 51°22.738 3°9.398 22.471816 0.069549 0.357478  
2002-09-18 08:08:45 51°22.736 3°9.396 22.56953 0.069549 0.357478  
2002-09-18 08:08:50 51°22.736 3°9.395 22.57113 0.069445 0.356943  
2002-09-18 08:08:55 51°22.735 3°9.394 22.796777 0.069549 0.357494  
2002-09-18 08:09:00 51°22.734 3°9.393 22.605855 0.069445 0.356959  
2002-09-18 08:09:05 51°22.734 3°9.393 22.576125 0.069445 0.356959  
2002-09-18 08:09:10 51°22.733 3°9.392 22.450749 0.069445 0.356959  
2002-09-18 08:09:14 51°22.732 3°9.391 22.450749 0.069445 0.356959